EDT,Max TemperatureF,Mean TemperatureF,Min TemperatureF,Max Dew PointF,MeanDew PointF,Min DewpointF,Max Humidity, Mean Humidity, Min Humidity, Max Sea Level PressureIn, Mean Sea Level PressureIn, Min Sea Level PressureIn, Max VisibilityMiles, Mean VisibilityMiles, Min VisibilityMiles, Max Wind SpeedMPH, Mean Wind SpeedMPH, Max Gust SpeedMPH,PrecipitationIn, CloudCover, Events, WindDirDegrees
2013-4-1,47,38,29,42,33,10,100,65,30,29.87,29.65,29.56,10,5,1,24,8,46,0.02,7,Rain,221
2013-4-2,36,30,23,19,12,8,60,48,35,29.99,29.90,29.85,10,9,2,23,11,35,T,5,Snow,258
2013-4-3,42,34,26,13,9,6,55,39,23,30.26,30.08,29.99,10,10,10,25,12,33,0.00,1,,273
2013-4-4,52,36,20,23,18,14,77,52,26,30.33,30.18,29.97,10,10,8,18,6,26,0.00,0,,204
2013-4-5,55,44,32,26,21,14,69,47,24,30.01,29.88,29.75,10,10,10,24,11,31,0.00,3,,271
2013-4-6,46,36,25,15,6,-1,58,36,14,30.31,30.23,30.02,10,10,10,24,8,33,0.00,0,,343
2013-4-7,60,42,24,37,25,17,75,50,24,30.27,30.04,29.88,10,10,10,28,10,39,T,2,,192
2013-4-8,59,51,43,37,32,27,66,48,30,30.14,30.05,29.96,10,10,10,13,5,17,T,4,Rain,323
2013-4-9,63,51,38,46,40,37,100,70,39,30.02,29.92,29.82,10,7,0,18,4,25,0.18,5,Fog-Rain,289
2013-4-10,54,49,43,46,44,41,100,86,71,30.02,29.94,29.88,10,7,2,14,6,18,0.49,8,Rain,9
2013-4-11,44,39,34,39,26,18,89,65,40,30.18,30.08,29.93,10,10,8,17,9,22,0.02,8,Rain-Snow,22
2013-4-12,37,35,32,34,31,21,92,74,56,30.17,29.92,29.80,10,5,2,13,5,17,0.67,8,Rain,14
2013-4-13,50,43,35,38,35,34,92,77,61,29.94,29.86,29.80,10,8,2,15,5,21,0.04,8,,222
2013-4-14,48,38,27,35,28,21,92,65,37,30.27,30.06,29.94,10,10,10,20,8,25,0.00,5,,250
2013-4-15,59,43,26,36,29,24,92,63,33,30.38,30.30,30.24,10,10,10,15,4,21,0.00,1,,199
2013-4-16,58,53,47,53,43,28,89,68,46,30.30,30.13,29.99,10,9,3,21,10,32,0.15,7,Rain,207
2013-4-17,61,50,39,42,32,28,80,55,29,30.35,30.26,30.15,10,10,10,20,8,26,0.00,0,,356
2013-4-18,63,48,33,45,34,28,82,58,34,30.37,30.22,30.02,10,10,10,22,9,32,0.00,6,,195
2013-4-19,72,59,46,60,53,42,86,74,61,30.00,29.74,29.49,10,8,1,30,13,43,0.92,7,Rain-Thunderstorm,208
2013-4-20,51,43,35,39,28,16,89,61,33,30.32,29.95,29.74,10,10,8,23,10,35,0.09,6,Rain,246
2013-4-21,49,39,28,23,17,13,64,45,25,30.69,30.57,30.34,10,10,10,18,6,23,0.00,0,,351
2013-4-22,58,43,27,25,21,17,75,49,23,30.73,30.63,30.51,10,10,10,15,4,21,0.00,0,,123
2013-4-23,55,42,28,36,30,23,85,66,46,30.54,30.37,30.17,10,10,10,12,3,14,0.00,3,,191
2013-4-24,70,50,30,50,37,28,100,69,37,30.14,29.94,29.68,10,8,0,23,6,36,0.06,2,Fog-Rain,189
2013-4-25,57,46,34,50,30,23,75,51,27,30.28,30.10,29.74,10,10,9,23,7,30,T,3,Rain,251
2013-4-26,57,45,32,37,30,26,89,61,32,30.46,30.40,30.27,10,10,8,12,2,15,0.01,4,Rain,316
2013-4-27,63,47,30,33,29,26,89,57,25,30.47,30.39,30.29,10,10,10,9,2,14,0.00,1,,18
2013-4-28,72,53,33,41,35,30,89,58,27,30.32,30.23,30.11,10,10,10,15,4,22,0.00,0,,176
2013-4-29,61,56,50,43,38,30,61,50,38,30.23,30.19,30.17,10,10,10,16,7,22,T,6,,200
2013-4-30,73,61,48,46,42,39,80,57,33,30.31,30.26,30.23,10,10,5,13,3,16,0.00,5,,187